Location: Emory University Observatory
(33.7903°N, 84.3267°W)
Time: 20:40:18
(UTC-04:00)

Vanguard 1 - Visible Passes

Search period start: 23 April 2018 00:00
Search period end: 03 May 2018 00:00
Orbit: 650 x 3833 km, 34.2° (Epoch: 23 April)

Date Brightness Start Highest point End Pass type
(mag) Time Alt. Az. Time Alt. Az. Time Alt. Az.
23 Apr 11.1 03:32:02 46° ESE 03:32:02 46° ESE 03:39:01 10° ESE visible
23 Apr 11.5 05:44:47 16° W 05:50:52 45° SSW 06:03:52 10° SE visible
24 Apr 10.7 03:52:13 55° SE 03:52:13 55° SE 04:00:26 10° ESE visible
24 Apr 11.8 06:04:58 11° W 06:12:06 35° SSW 06:24:23 10° SSE visible
24 Apr 11.2 21:08:28 10° S 21:11:10 13° SSE 21:12:06 13° SE visible
25 Apr 10.6 04:12:30 55° SSE 04:12:30 55° SSE 04:21:41 10° ESE visible
25 Apr 12.1 06:26:21 10° W 06:33:22 27° SSW 06:44:22 10° SSE visible
25 Apr 10.7 21:27:51 10° SSW 21:32:08 21° SSE 21:32:37 21° SSE visible
26 Apr 10.7 04:32:51 47° SSW 04:32:51 47° SSW 04:42:42 10° SE visible
26 Apr 10.2 21:48:03 10° SW 21:53:04 31° SSE 21:53:04 31° SSE visible
27 Apr 11.0 04:53:16 36° SSW 04:53:43 36° SSW 05:03:23 10° SE visible
27 Apr 9.8 22:08:39 10° SW 22:13:29 43° S 22:13:29 43° S visible
28 Apr 12.6 03:00:59 11° ESE 03:00:59 11° ESE 03:01:26 10° ESE visible
28 Apr 11.4 05:13:46 26° SW 05:14:53 27° SSW 05:23:38 10° SSE visible
28 Apr 9.8 22:29:30 10° WSW 22:33:50 48° SW 22:33:50 48° SW visible
29 Apr 12.5 03:21:32 13° SE 03:21:32 13° SE 03:22:29 10° SE visible
29 Apr 11.8 05:34:19 18° SW 05:36:07 19° SSW 05:43:16 10° SSE visible
29 Apr 10.2 22:50:32 10° WSW 22:54:07 40° WSW 22:54:07 40° WSW visible
30 Apr 12.5 03:42:08 13° SE 03:42:08 13° SE 03:43:17 10° SE visible
30 Apr 12.2 05:54:55 11° SW 05:57:25 13° SSW 06:01:40 10° S visible
30 Apr 10.4 20:49:50 10° SW 20:56:41 39° SSE 21:01:15 10° E visible
30 Apr 10.8 23:11:38 10° W 23:14:21 30° W 23:14:21 30° W visible
01 May 12.5 04:02:46 13° SSE 04:02:46 13° SSE 04:03:43 10° SSE visible
01 May 9.9 21:10:40 10° WSW 21:17:38 52° SSE 21:21:47 13° E visible
01 May 11.4 23:32:46 10° W 23:34:31 21° W 23:34:31 21° W visible
02 May 12.6 04:23:25 10° SSE 04:23:25 10° SSE 04:23:37 10° SSE visible
02 May 9.6 21:31:43 10° WSW 21:38:36 68° SSE 21:41:54 20° E visible
